AB4CZ-1 Weather Reports


Display with metric or nautical units.
time (UTC)temp
F
wind
direction
speed
MPH
gust
MPH
rain 1hr
in
rain 24hr
in
rain mn
in
humidity
%
barometer
mb
20260504120132 46 0 0.0 0.0 0.00 0.00 0.00 96 1018.7
20260504110133 43 0 0.0 0.0 0.00 0.00 0.00 95 1018.1
20260504100429 44 0 0.0 0.0 0.00 0.00 0.00 94 1017.8
20260504100131 44 0 0.0 0.0 0.00 0.00 0.00 94 1017.8
20260504081131 45 0 0.0 0.0 0.00 0.00 0.00 92 1017.8
20260504080713 45 0 0.0 0.0 0.00 0.00 0.00 92 1017.8
20260504080146 45 0 0.0 0.0 0.00 0.00 0.00 91 1017.8
20260504070131 46 0 0.0 0.0 0.00 0.00 0.00 90 1019.2
20260504060221 48 0 0.0 0.0 0.00 0.00 0.00 88 1019.3
20260504060145 48 0 0.0 0.0 0.00 0.00 0.00 88 1019.3
20260504050637 49 0 0.0 0.0 0.00 0.00 0.00 84 1019.4
20260504050137 49 0 0.0 0.0 0.00 0.00 0.00 83 1019.5
20260504045728 49 0 0.0 0.0 0.00 0.00 0.00 83 1019.4
20260504045131 50 0 0.0 0.0 0.00 0.00 0.00 83 1019.5
20260504044131 50 0 0.0 0.0 0.00 0.00 0.00 83 1019.4
20260504043636 50 0 0.0 0.0 0.00 0.00 0.00 82 1019.4
20260504043147 50 0 0.0 0.0 0.00 0.00 0.00 82 1019.4
20260504042131 50 0 0.0 0.0 0.00 0.00 0.00 81 1019.5
20260504041634 51 0 0.0 0.0 0.00 0.00 0.00 82 1019.5
20260504041131 51 0 0.0 0.0 0.00 0.00 0.00 81 1019.5
20260504040637 51 0 0.0 0.0 0.00 0.00 0.00 80 1019.5
20260504040131 51 0 0.0 0.0 0.00 0.00 0.00 81 1019.5
20260504035631 51 0 0.0 0.0 0.00 0.00 0.00 80 1019.5
20260504035139 51 0 0.0 0.0 0.00 0.00 0.00 80 1019.5
20260504034637 51 0 0.0 0.0 0.00 0.00 0.00 80 1019.6
20260504034308 51 0 0.0 0.0 0.00 0.00 0.00 79 1019.5
20260504034131 51 0 0.0 0.0 0.00 0.00 0.00 79 1019.5
20260504033634 52 0 0.0 0.0 0.00 0.00 0.00 79 1019.6
20260504033131 52 0 0.0 0.0 0.00 0.00 0.00 78 1019.6
20260504032131 52 0 0.0 0.0 0.00 0.00 0.00 78 1019.5
20260504031631 52 0 0.0 0.0 0.00 0.00 0.00 78 1019.5
20260504031134 52 0 0.0 0.0 0.00 0.00 0.00 77 1019.5
20260504025722 53 0 0.0 0.0 0.00 0.00 0.00 75 1019.5
20260504025318 53 0 0.0 0.0 0.00 0.00 0.00 74 1019.5
20260504025314 53 0 0.0 0.0 0.00 0.00 0.00 73 1019.6
20260504025131 53 0 0.0 0.0 0.00 0.00 0.00 74 1019.5
20260504024639 53 0 0.0 0.0 0.00 0.00 0.00 73 1019.6
20260504024138 53 0 0.0 0.0 0.00 0.00 0.00 72 1019.5
20260504023637 54 0 0.0 0.0 0.00 0.00 0.00 71 1019.5
20260504023256 54 0 0.0 0.0 0.00 0.00 0.00 71 1019.5
20260504023152 54 0 0.0 0.0 0.00 0.00 0.00 71 1019.5
20260504022131 54 0 0.0 0.0 0.00 0.00 0.00 70 1019.3
20260504021636 55 0 0.0 0.0 0.00 0.00 0.00 70 1019.2
20260504020636 55 0 0.0 0.0 0.00 0.00 0.00 68 1018.9
20260504020134 55 0 0.0 0.0 0.00 0.00 0.00 68 1018.9
20260504015641 55 0 0.0 0.0 0.00 0.00 0.00 66 1018.8
20260504015131 56 0 0.0 0.0 0.00 0.00 0.00 66 1018.7
20260504014639 56 0 0.0 0.0 0.00 0.00 0.00 65 1018.7
20260504014131 56 0 0.0 0.0 0.00 0.00 0.00 64 1018.7
20260504012631 57 0 0.0 0.0 0.00 0.00 0.00 64 1018.5
20260504012131 57 0 0.0 0.0 0.00 0.00 0.00 62 1018.4
20260504011631 58 0 0.0 0.0 0.00 0.00 0.00 61 1018.4
20260504011131 58 0 0.0 0.0 0.00 0.00 0.00 60 1018.2
20260504010633 58 0 0.0 0.0 0.00 0.00 0.00 58 1018.2
20260504010132 59 0 0.0 0.0 0.00 0.00 0.00 57 1018.3
20260504005634 59 0 0.0 0.0 0.00 0.00 0.00 56 1018.3
20260504005131 60 0 0.0 0.0 0.00 0.00 0.00 56 1018.1
20260504004131 60 0 0.0 0.0 0.00 0.00 0.00 53 1018.0
20260504003631 61 0 0.0 0.0 0.00 0.00 0.00 51 1017.9
20260504002634 62 0 0.0 0.0 0.00 0.00 0.00 48 1017.9
20260504001631 63 0 0.0 0.0 0.00 0.00 0.00 47 1017.8
20260504000631 64 0 0.0 0.0 0.00 0.00 0.00 45 1017.8
20260504000131 64 0 0.0 0.0 0.00 0.00 0.00 45 1017.8
20260503235238 65 0 0.0 0.0 0.00 0.00 0.00 44 1017.8
20260503234631 65 0 0.0 0.0 0.00 0.00 0.00 44 1017.7
20260503234131 65 0 0.0 0.0 0.00 0.00 0.00 44 1017.8
20260503233634 65 0 0.0 1.0 0.00 0.00 0.00 43 1017.7
20260503233133 66 0 0.0 1.0 0.00 0.00 0.00 44 1017.8
20260503232636 66 0 0.0 1.0 0.00 0.00 0.00 45 1017.7
20260503232131 66 0 0.0 1.0 0.00 0.00 0.00 43 1017.8
20260503231131 67 0 0.0 0.0 0.00 0.00 0.00 43 1017.9
20260503230631 67 0 0.0 0.0 0.00 0.00 0.00 44 1017.9
20260503225132 68 0 0.0 0.0 0.00 0.00 0.00 41 1018.0
20260503223638 68 0 0.0 0.0 0.00 0.00 0.00 40 1017.8
20260503223132 68 0 0.0 0.0 0.00 0.00 0.00 39 1017.8
20260503222858 68 0 0.0 0.0 0.00 0.00 0.00 40 1017.9
20260503222645 68 0 0.0 0.0 0.00 0.00 0.00 40 1017.9
20260503222132 68 0 0.0 0.0 0.00 0.00 0.00 41 1017.9
20260503221635 68 0 0.0 0.0 0.00 0.00 0.00 41 1017.9
20260503221132 68 0 0.0 0.0 0.00 0.00 0.00 40 1017.8
20260503220631 68 0 0.0 0.0 0.00 0.00 0.00 40 1017.8
20260503220427 69 0 0.0 0.0 0.00 0.00 0.00 44 1017.9
20260503220131 69 0 0.0 0.0 0.00 0.00 0.00 44 1017.9
20260503215631 69 0 0.0 0.0 0.00 0.00 0.00 42 1017.8
20260503213131 69 0 0.0 0.0 0.00 0.00 0.00 41 1018.0
20260503211724 69 0 0.0 0.0 0.00 0.00 0.00 39 1018.2
20260503211634 69 0 0.0 0.0 0.00 0.00 0.00 39 1018.2
20260503211141 69 0 0.0 0.0 0.00 0.00 0.00 39 1018.1
20260503210631 69 0 0.0 0.0 0.00 0.00 0.00 38 1018.2
20260503210131 69 0 0.0 0.0 0.00 0.00 0.00 36 1018.3
20260503205131 70 0 0.0 0.0 0.00 0.00 0.00 38 1018.4
20260503204133 70 0 0.0 0.0 0.00 0.00 0.00 39 1018.3
20260503203959 70 0 0.0 0.0 0.00 0.00 0.00 38 1018.6
20260503203631 70 0 0.0 0.0 0.00 0.00 0.00 38 1018.6
20260503203131 70 0 0.0 0.0 0.00 0.00 0.00 36 1018.6
20260503202131 71 0 0.0 0.0 0.00 0.00 0.00 38 1018.8
20260503201631 71 0 0.0 0.0 0.00 0.00 0.00 36 1018.9
20260503200131 72 0 0.0 0.0 0.00 0.00 0.00 36 1019.1
20260503195631 72 0 0.0 0.0 0.00 0.00 0.00 35 1019.2
20260503195131 72 0 0.0 0.0 0.00 0.00 0.00 34 1019.2
20260503194634 72 0 0.0 0.0 0.00 0.00 0.00 34 1019.4
20260503194131 71 0 0.0 0.0 0.00 0.00 0.00 31 1019.4
20260503193635 72 0 0.0 0.0 0.00 0.00 0.00 37 1019.4
20260503193140 71 0 0.0 0.0 0.00 0.00 0.00 36 1019.5
20260503192633 71 0 0.0 0.0 0.00 0.00 0.00 38 1019.6
20260503192131 71 0 0.0 0.0 0.00 0.00 0.00 33 1019.7
20260503191713 71 0 0.0 0.0 0.00 0.00 0.00 36 1019.8
20260503191631 71 0 0.0 0.0 0.00 0.00 0.00 36 1019.8
20260503190131 71 0 0.0 4.0 0.00 0.00 0.00 38 1020.1
20260503185131 71 0 0.0 0.0 0.00 0.00 0.00 41 1020.3
20260503184632 70 0 0.0 0.0 0.00 0.00 0.00 39 1020.3
20260503184131 70 0 0.0 3.0 0.00 0.00 0.00 38 1020.4
20260503183140 70 0 0.0 5.0 0.00 0.00 0.00 39 1020.6
20260503182631 71 0 0.0 5.0 0.00 0.00 0.00 40 1020.6
20260503182131 71 0 0.0 2.0 0.00 0.00 0.00 41 1020.7
20260503181631 70 0 0.0 6.0 0.00 0.00 0.00 39 1020.7
20260503181142 71 359 3.0 6.0 0.00 0.00 0.00 39 1020.6
20260503180706 71 0 0.0 0.0 0.00 0.00 0.00 42 1020.7
20260503180702 71 0 0.0 0.0 0.00 0.00 0.00 36 1020.7
20260503180633 71 0 0.0 0.0 0.00 0.00 0.00 42 1020.7
20260503180131 71 0 0.0 0.0 0.00 0.00 0.00 36 1020.7
20260503175131 72 0 0.0 0.0 0.00 0.00 0.00 40 1020.8
20260503174636 70 0 0.0 0.0 0.00 0.00 0.00 38 1020.7
20260503174131 69 0 0.0 0.0 0.00 0.00 0.00 39 1020.9
20260503173631 70 0 0.0 0.0 0.00 0.00 0.00 36 1020.8
20260503173131 70 0 0.0 0.0 0.00 0.00 0.00 38 1020.9
20260503172648 70 0 0.0 0.0 0.00 0.00 0.00 38 1021.0
20260503172145 70 0 0.0 0.0 0.00 0.00 0.00 38 1021.0
20260503171221 70 0 0.0 0.0 0.00 0.00 0.00 40 1021.2
20260503171143 70 0 0.0 0.0 0.00 0.00 0.00 40 1021.2
20260503170631 70 0 0.0 0.0 0.00 0.00 0.00 38 1021.2
20260503170131 70 0 0.0 0.0 0.00 0.00 0.00 44 1021.2
20260503150635 64 0 0.0 0.0 0.00 0.00 0.00 49 1022.0
20260503140131 62 0 0.0 0.0 0.00 0.00 0.00 56 1021.6
20260503131230 58 0 0.0 0.0 0.00 0.00 0.00 68 1021.5
20260503131131 58 0 0.0 0.0 0.00 0.00 0.00 68 1021.5
20260503130633 57 0 0.0 0.0 0.00 0.00 0.00 68 1021.4
20260503130131 57 0 0.0 0.0 0.00 0.00 0.00 68 1021.5